Flag for Netherlands Weather past 2 weeks in Haarlem, Netherlands

Now
54 °F

Mostly cloudy.


Feels Like: 50 °F
Forecast: 54 / 58 °F
Wind: 13 mph from South

Location: Amsterdam Schiphol Airport

Current Time: Oct 24, 2014 at 5:04:21 PM

Latest Report: Oct 24, 2014 at 4:25 PM


Visibility: N/A

Pressure: 30.01 "Hg

Humidity: 100%

Dew point: 54 °F

Location of HaarlemLocation

Historic Weather in Haarlem — Graph

°F

Haarlem temperature yesterday

Maximum temperature yesterday: 57 °F (at 12:55 PM)
Minimum temperature yesterday: 50 °F (at 3:55 AM)
Average temperature yesterday: 54 °F

Past Weeks' High & Low Weather Summary

 TemperatureHumidityPressure
High72 °F (Oct 18, 3:55 PM)100% (Oct 11, 2:55 AM)30.15 "Hg (Oct 11, 2:55 AM)
Low46 °F (Oct 22, 4:55 AM)6% (Oct 21, 5:25 PM)29.42 "Hg (Oct 21, 1:25 PM)
Average57 °F88%29.84 "Hg
* Reported Oct 9 3:25 PM — Oct 24 3:55 PM, Haarlem, Weather by CustomWeather, © 2014

Note: Actual official high and low records may vary slightly from our data, if they occured in-between our weather recording intervals... More about our weather records

Advertising

Haarlem weather history for previous 24 hours

 ConditionsComfort  
Time TempWeatherWind HumidityBarometerVisibility
3:55 PM
Oct 24
54 °FMostly cloudy.13 mph100%30.01 "Hg5 mi
3:25 PM54 °FDrizzle. Mostly cloudy.12 mph100%30.01 "Hg4 mi
2:55 PM54 °FDrizzle. Broken clouds.14 mph100%30.01 "Hg2 mi
2:25 PM54 °FDrizzle. Broken clouds.12 mph100%30.01 "Hg2 mi
1:55 PM54 °FDrizzle. Broken clouds.13 mph100%30.04 "Hg2 mi
1:25 PM54 °FDrizzle. Broken clouds.13 mph100%30.04 "Hg4 mi
12:55 PM54 °FDrizzle. Broken clouds.12 mph94%30.04 "Hg3 mi
12:25 PM52 °FDrizzle. Broken clouds.13 mph100%30.04 "Hg3 mi
11:55 AM52 °FDrizzle. Partly sunny.15 mph100%30.04 "Hg2 mi
11:25 AM52 °FDrizzle. Mostly cloudy.15 mph100%30.04 "Hg3 mi
10:55 AM52 °FDrizzle. Mostly cloudy.15 mph94%30.07 "HgN/A
10:25 AM52 °FDrizzle. Mostly cloudy.15 mph94%30.07 "HgN/A
9:55 AM52 °FDrizzle. Mostly cloudy.14 mph94%30.07 "HgN/A
9:25 AM52 °FPartly sunny.13 mph88%30.07 "HgN/A
8:55 AM52 °FPartly cloudy.14 mph88%30.04 "HgN/A
8:25 AM52 °FPassing clouds.13 mph88%30.04 "HgN/A
7:55 AM52 °FOvercast.13 mph88%30.04 "HgN/A
7:25 AM52 °FPartly cloudy.13 mph88%30.04 "Hg4 mi
6:55 AM54 °FDrizzle. Mostly cloudy.14 mph82%30.07 "HgN/A
6:25 AM52 °FDrizzle. Mostly cloudy.16 mph88%30.07 "HgN/A
5:55 AM54 °FPassing clouds.16 mph82%30.07 "HgN/A
5:25 AM54 °FPassing clouds.15 mph77%30.07 "HgN/A
4:55 AM52 °FPassing clouds.14 mph88%30.07 "HgN/A
4:25 AM54 °FPassing clouds.15 mph82%30.07 "HgN/A
3:55 AM54 °FPassing clouds.15 mph82%30.07 "HgN/A
3:25 AM54 °FPassing clouds.14 mph82%30.09 "HgN/A
2:55 AM54 °FPassing clouds.14 mph82%30.09 "HgN/A
2:25 AM54 °FPassing clouds.15 mph88%30.09 "HgN/A
1:55 AM54 °FPassing clouds.13 mph88%30.09 "HgN/A
1:25 AM54 °FPassing clouds.20 mph88%30.09 "HgN/A
12:55 AM55 °FPassing clouds.16 mph77%30.09 "HgN/A
12:25 AM55 °FPassing clouds.14 mph82%30.09 "HgN/A
11:55 PM
Oct 23
55 °FPassing clouds.12 mph82%30.09 "HgN/A
11:25 PM55 °FPartly cloudy.16 mph82%30.09 "HgN/A
10:55 PM55 °FPartly cloudy.15 mph88%30.12 "HgN/A
10:25 PM55 °FPartly cloudy.18 mph88%30.12 "HgN/A
9:55 PM55 °FPartly cloudy.16 mph88%30.12 "HgN/A
9:25 PM55 °FPartly cloudy.15 mph88%30.12 "HgN/A
8:55 PM55 °FPassing clouds.15 mph88%30.09 "HgN/A
8:25 PM55 °FPartly cloudy.15 mph88%30.09 "HgN/A
7:55 PM55 °FPartly cloudy.14 mph88%30.09 "HgN/A
7:25 PM55 °FBroken clouds.13 mph88%30.09 "HgN/A
6:55 PM55 °FBroken clouds.13 mph88%30.09 "HgN/A
6:25 PM55 °FBroken clouds.13 mph82%30.09 "HgN/A
5:55 PM55 °FBroken clouds.14 mph88%30.12 "HgN/A
5:25 PM55 °FBroken clouds.15 mph82%30.12 "HgN/A
Weather by CustomWeather, © 2014

See weather overviewHow to use our weather pages